Dewpoint
69 67 65 63 62 61 62 62 61 61 62 62 62 62 62 62 63 63 63 63 64 64 64 64 64 64 62 61 60 59 58 57 55 56 56 57 58 59 59 59 59 59 58
69 66 64 61 62 61 62 63 62 62 62 62 62 63 63 63 63 63 63 64 63 63 63 63 63 62 62 62 59 60 60 59 58 57 58 57 58 60 60 59 58 56 58
68 65 63 62 63 63 63 63 63 62 61 61 63 63 62 62 61 61 63 63 63 63 63 63 62 61 61 61 60 60 60 60 59 57 57 58 57 58 58 59 59 58 57
66 64 63 63 62 64 64 63 63 62 62 62 62 62 61 60 60 61 62 62 62 62 63 63 62 61 61 61 61 61 61 60 59 58 57 57 57 58 57 55 54 55 55
66 64 64 64 64 64 64 64 63 62 62 62 62 61 61 60 59 62 63 62 63 63 63 63 61 61 62 62 62 61 60 59 59 57 56 56 56 56 55 55 54 54 55
67 65 66 65 65 65 65 65 63 62 62 62 61 61 61 60 60 61 63 62 63 63 61 61 59 59 60 60 61 62 62 60 59 58 56 56 57 57 56 54 53 52 52
67 67 66 65 64 64 65 65 63 62 62 61 61 61 61 62 59 59 61 64 62 60 60 60 58 59 60 58 58 59 60 60 61 61 58 57 57 57 57 55 55 53 53
68 68 66 64 64 64 63 62 63 62 61 61 62 62 62 62 58 58 60 63 62 60 59 59 59 59 57 58 58 58 57 57 57 55 57 57 57 58 58 57 55 55 55
68 66 66 65 64 65 63 63 62 63 63 62 63 63 62 62 58 57 59 62 61 60 59 57 56 58 56 55 56 56 55 55 55 55 55 55 55 55 56 56 54 54 52
67 66 66 65 63 63 64 64 63 63 63 64 63 62 60 62 58 58 58 61 59 57 57 57 55 54 53 52 54 54 54 53 52 52 53 53 54 55 55 57 57 53 52
66 66 67 66 66 65 64 63 63 64 63 63 62 60 61 62 62 57 54 59 57 56 55 54 54 52 50 49 50 54 53 53 52 52 50 50 51 52 53 55 56 55 52
66 66 65 65 65 63 61 61 62 61 60 60 61 59 59 61 56 55 52 54 55 56 54 52 53 48 48 49 51 50 49 50 52 51 49 49 51 51 52 53 55 55 56
63 63 64 63 63 62 61 61 61 60 60 60 61 61 62 58 55 51 51 51 52 50 50 49 48 46 46 49 50 49 49 50 49 48 46 48 50 52 53 53 54 54 55
62 62 63 63 62 61 62 62 61 60 59 61 61 61 59 56 54 51 50 50 50 48 46 46 49 50 49 48 48 47 48 48 47 46 45 48 49 50 50 52 52 53 52
61 61 61 61 62 62 61 60 61 59 57 61 60 59 56 54 51 48 48 48 48 46 45 50 51 48 46 44 42 43 44 43 43 43 44 45 47 46 46 50 51 51 51
61 60 60 61 61 60 54 52 46 45 45 44 46 51 50 47 43 42 40 40 40 42 46 48 46 43 42 40 39 37 38 38 38 39 39 42 40 43 44 47 49 49 49
60 58 56 56 59 57 55 54 52 47 43 41 41 41 41 41 40 40 39 39 39 42 45 43 41 39 37 36 34 33 33 35 38 36 39 36 36 40 43 45 46 48 49
59 54 59 59 58 57 55 54 52 52 50 46 43 42 40 40 40 39 38 40 42 40 40 39 36 32 32 33 33 31 32 34 34 34 34 35 35 36 38 41 45 45 47
58 57 57 58 57 55 55 54 53 51 49 48 47 44 42 40 39 39 40 44 42 38 35 33 32 33 34 35 32 29 30 33 33 32 32 33 34 35 36 39 41 42 46
59 56 56 56 55 55 54 53 52 51 50 48 48 48 47 45 45 43 42 41 39 36 36 36 37 37 37 32 27 27 31 32 31 31 32 32 33 34 34 36 38 40 44
55 56 56 56 55 54 54 53 53 52 51 49 49 47 44 47 45 43 41 41 40 39 39 39 38 35 28 26 29 31 30 30 30 31 31 32 33 33 34 34 35 36 38
54 54 56 56 56 55 55 55 55 54 51 50 48 46 41 45 44 44 42 41 41 41 37 34 29 25 23 25 30 29 29 29 30 30 31 31 32 32 32 32 32 34 35
54 53 54 54 54 52 53 53 53 52 51 50 47 44 43 44 44 43 43 41 41 41 35 31 28 24 24 26 27 27 26 27 28 29 30 30 30 31 32 32 31 32 33
52 52 52 51 52 51 51 51 52 48 50 49 47 45 43 43 43 43 43 43 42 38 32 29 27 23 23 23 23 22 23 25 29 30 31 30 30 31 31 31 31 32 31
48 49 49 50 49 49 49 48 49 50 49 48 47 46 45 44 42 42 43 42 41 36 33 30 26 23 20 19 18 18 23 27 30 31 30 30 30 32 30 29 30 30 30
46 47 47 48 47 47 46 46 45 45 45 48 47 47 46 44 43 42 41 39 37 35 32 29 27 23 21 19 20 23 26 27 30 30 30 29 28 29 29 29 29 27 29
Lifted_Index
-5 -5 -5 -6 -5 -2 1 2 1 1 1 2 2 2 2 2 2 2 2 2 2 2 2 2 2 2 2 2 2 3 3 4 3 3 3 3 4 4 4 5 5 5 5
-6 -5 -5 -5 -5 -3 0 1 1 1 1 2 2 2 2 2 2 2 2 2 2 2 2 2 2 2 2 2 2 2 3 3 3 3 3 3 3 3 4 4 4 5 5
-6 -6 -5 -5 -5 -3 -1 0 0 0 1 2 1 1 1 2 2 2 2 2 2 2 2 2 2 2 2 2 2 2 2 3 3 3 2 2 2 3 3 3 4 4 4
-6 -6 -6 -6 -5 -3 -2 -0 -0 0 1 1 1 1 1 2 2 2 2 2 2 2 2 2 2 2 2 2 2 2 2 2 2 2 2 2 2 2 2 3 4 4 4
-5 -5 -5 -6 -5 -4 -2 -1 -1 -1 -0 -0 0 0 1 1 2 2 1 1 2 2 2 2 2 2 2 2 2 2 2 2 2 2 2 1 1 2 2 3 4 4 5
-5 -5 -5 -6 -5 -3 -2 -1 -1 -2 -2 -1 -1 -0 0 1 1 1 1 1 1 1 2 2 2 3 3 3 2 2 2 2 1 1 1 1 1 1 2 3 4 5 5
-5 -5 -5 -5 -5 -3 -2 -1 -2 -2 -2 -1 -1 -0 -0 -0 -0 -0 0 0 1 1 1 1 2 2 3 3 3 3 2 1 1 1 1 1 1 2 3 4 5 5 6
-5 -5 -5 -5 -5 -3 -2 -1 -2 -2 -1 -1 -1 -1 -1 -1 -1 -1 -1 -0 1 1 1 1 1 2 3 3 3 3 2 2 1 1 1 2 2 3 3 4 5 6 6
-5 -5 -5 -5 -5 -3 -2 -1 -1 -2 -1 -1 -1 -1 -1 -1 -1 -1 -1 -1 0 1 1 1 2 3 3 4 4 3 3 2 2 2 2 3 4 3 3 4 5 6 7
-5 -5 -6 -5 -4 -3 -2 -1 -2 -2 -2 -1 -1 -1 -0 -0 -1 -1 -1 -1 -0 0 1 2 2 3 4 4 4 4 3 2 2 3 3 4 4 3 3 3 4 6 7
-5 -6 -6 -5 -4 -3 -2 -2 -2 -2 -1 -1 -0 0 1 1 0 -1 -1 -1 -0 1 1 2 3 4 4 4 4 4 3 3 3 4 4 4 3 3 2 3 4 6 6
-5 -5 -5 -4 -3 -2 -2 -1 -2 -1 -1 0 1 1 1 1 0 -0 -1 -1 0 1 2 3 3 4 5 5 5 4 4 4 4 4 4 3 3 3 3 3 4 5 6
-5 -5 -4 -3 -3 -2 -1 -1 -1 -1 -0 1 1 1 0 -0 -0 -0 -0 0 1 2 2 3 3 4 5 5 5 4 4 4 4 4 4 4 4 3 3 3 4 5 5
-4 -4 -3 -2 -2 -2 -1 -0 0 0 0 0 1 0 -0 -0 -0 -0 0 1 2 2 3 3 3 4 4 4 4 4 5 5 4 4 4 5 5 5 5 4 4 5 5
-3 -2 -2 -2 -1 -1 -0 0 1 1 0 -0 -0 -0 -0 -0 0 1 1 2 3 3 3 3 3 4 4 4 5 5 5 5 4 5 5 6 6 6 6 5 4 4 5
-1 -1 -1 -1 -0 -0 0 1 1 1 -0 -1 -1 -0 0 1 1 1 2 3 3 4 4 4 4 4 5 5 6 6 6 5 5 5 6 6 7 8 7 5 4 4 4
0 0 0 0 1 1 1 1 1 1 -0 -0 0 0 1 1 2 2 3 4 4 4 4 4 4 5 6 6 6 6 6 6 6 7 7 8 9 9 8 5 3 3 4
1 1 1 1 1 1 0 1 0 0 0 1 1 1 1 2 3 3 4 4 5 5 4 4 5 6 7 7 7 6 7 7 8 9 10 11 11 10 8 6 4 3 3
0 1 1 0 0 -0 -1 -0 -0 0 0 1 1 1 2 3 3 4 4 5 5 6 5 5 6 7 7 7 7 7 8 9 10 11 12 12 12 12 10 7 5 3 3
-0 -0 -0 -0 -1 -1 -1 -0 -0 0 0 1 1 1 2 3 3 4 4 5 5 6 7 7 7 7 8 8 8 9 10 11 12 13 13 13 13 13 12 9 6 4 3
-0 -0 -1 -1 -1 -0 -0 0 0 0 0 1 1 2 2 2 2 3 3 4 5 7 7 8 8 9 9 10 11 11 12 13 13 14 14 14 14 14 13 12 9 6 5
-0 -0 -0 -1 -0 -0 -0 -0 0 0 0 1 1 2 2 2 2 3 3 4 6 7 8 8 9 10 11 13 13 14 14 14 14 14 14 14 14 14 14 14 12 9 8
-0 -0 -0 -0 -0 -0 -0 -0 0 0 1 1 2 2 2 2 3 4 4 5 7 7 8 9 10 12 14 15 15 15 14 14 14 14 14 15 15 15 15 15 14 12 11
0 0 0 1 1 1 1 1 1 1 2 2 2 2 2 2 3 4 5 6 7 8 9 10 11 13 15 15 15 15 15 14 14 14 15 15 15 15 15 15 15 14 14
2 2 2 2 2 2 2 2 3 3 3 3 3 3 3 3 4 5 5 6 7 8 9 11 13 14 15 15 15 15 15 14 14 14 14 14 14 15 15 15 15 15 15
3 3 3 4 4 4 4 4 4 5 5 5 4 4 3 3 4 5 6 6 7 8 10 12 13 14 14 15 15 14 14 14 14 14 14 14 14 15 15 15 15 15 15